Regional Weather Roundup
Issued by NWS

Home | Current Version | Previous Version | Text Only | Print | Product List | Glossary Off
Versions: 1 2 3 4 5 6 7 8 9 10 11 12 13 14 15 16 17 18 19 20 21 22 23 24 25 26 27 28 29 30 31 32 33 34 35 36 37 38 39 40 41 42 43 44 45 46 47 48 49 50

758
ASUS43 KFSD 230410
RWRSD

WEATHER ROUNDUP FOR SOUTH DAKOTA
NATIONAL WEATHER SERVICE SIOUX FALLS SD
1000 PM CST WED FEB 22 2017

NOTE: "FAIR" INDICATES FEW OR NO CLOUDS BELOW 12,000 FEET WITH NO
SIGNIFICANT WEATHER AND/OR OBSTRUCTIONS TO VISIBILITY.


SDZ001>005-009-010-012>017-230500-
NORTHWEST AND NORTH CENTRAL SOUTH DAKOTA

CITY           SKY/WX    TMP DP  RH WIND       PRES   REMARKS
BUFFALO          N/A     31  28  89 NE10      29.86F WCI  22
FAITH            N/A     31  31 100 NE10      29.93R WCI  22
MOBRIDGE       CLOUDY    33  27  78 N8        29.95R WCI  26
$$

SDZ012>016-024>037-041>051-057-063-072>074-230500-
SOUTHWEST AND SOUTH CENTRAL SOUTH DAKOTA

CITY           SKY/WX    TMP DP  RH WIND       PRES   REMARKS
RAPID CTY ARPT CLOUDY    32  27  81 NE13      29.91R WCI  22
PIERRE         CLOUDY    34  29  82 NE17G23   29.93R WCI  23
CUSTER         CLOUDY    29  23  78 E8        29.82R WCI  21
ELLSWORTH AFB  CLOUDY    32  28  85 NE10G18   29.90  WCI  24
PHILIP         CLOUDY    35  30  82 NE10      29.95R WCI  27
PINE RIDGE     CLOUDY    36  30  79 NE13      29.88S
SPEARFISH      CLOUDY    30  28  93 NE7       29.90S WCI  23
WINNER         CLOUDY    38  33  82 N14       29.91R
$$

SDZ004>011-016>023-039-040-230500-
NORTHEAST SOUTH DAKOTA

CITY           SKY/WX    TMP DP  RH WIND       PRES   REMARKS
ABERDEEN       CLOUDY    32  25  75 N15       29.96R WCI  22
WATERTOWN      CLOUDY    30  26  85 N18       29.87R WCI  18
BROOKINGS      CLOUDY    33  30  88 N15G23    29.84R WCI  23
SISSETON         N/A     32  28  85 N21G26    29.91R WCI  20
$$

SDZ017-020-022-023-036>040-048>070-230500-
SOUTHEAST SOUTH DAKOTA

CITY           SKY/WX    TMP DP  RH WIND       PRES   REMARKS
SIOUX FALLS    MOCLDY    38  35  89 N8        29.85R
HURON          CLOUDY    33  29  85 N20G26    29.92R WCI  21
CHAMBERLAIN    CLOUDY    36  33  90 N14G21    29.91S
MITCHELL       CLOUDY    35  31  85 N15       29.91R WCI  25
YANKTON        CLEAR     39  36  87 NW15      29.87R
$$

ABBREVIATIONS USED IN REMARKS
   TC - TEMPERATURE IN CELSIUS
  WCI - WIND CHILL INDEX
   HX - HEAT INDEX
  VSB - VISIBILITY





USA.gov is the U.S. government's official web portal to all federal, state and local government web resources and services.